Tracking 28335 objects as of 4-Dec-2023
HD Live streaming from Space Station
objects crossing your sky now

SL-16 DEB

Track SL-16 DEB now!
10-day predictions


NORAD ID: 22665
Int'l Code: 1992-093JA
Perigee: 831.4 km
Apogee: 928.2 km
Inclination: 71.1 °
Period: 102.4 minutes
Semi major axis: 7250 km
RCS: 0.0118 m2 (small)
Launch date: December 25, 1992
Source: Commonwealth of Independent States (former USSR) (CIS)
Launch site: TYURATAM MISSILE AND SPACE COMPLEX (TTMTR)

Note: This is SATELLITE DEBRIS
Your satellite tracking list
Your tracking list is empty




NASA's NSSDC Master Catalog

Two Line Element Set (TLE):
1 22665U 92093JA  23337.38422235  .00000816  00000-0  51364-3 0  9998
2 22665  71.0773 105.7153 0066751  73.8754 318.3736 14.06122642571472
Source of the keplerian elements: AFSPC